Location: Newark
(22.3000°N, 114.2000°E)
Time: 12:15:14
(UTC+00:00)

Hubble Space Telescope - Pass Details

Date: 24 October 2019
Orbit: 536 x 540 km, 28.5° (Epoch: 13 November)

Event Time Altitude Azimuth Distance (km) Brightness Sun altitude
Exits shadow 21:22:56 - 216° (SW) 2,181 3.6 -14.6°
Reaches altitude 10° 21:24:09 10° 208° (SSW) 1,773 3.2 -14.4°
Maximum altitude 21:27:31 25° 152° (SSE) 1,108 2.8 -13.6°
Drops below altitude 10° 21:30:54 10° 97° (E) 1,775 4.9 -12.8°
Sets 21:33:27 0° 84° (E) 2,666 6.0 -12.2°
